Header for Extended Forecast Station List Page

Search by: ID | Name | Date | Parm | Value | Avg | % Avg
Sort by: ID | Name | Date | Parm | Value | Avg | % Avg

Enter search or view all records.

Click on id for station plot
#IDNameDateParmValueAvg% Avg
0HWRI1BIG LOST-AT HOWELL RANCH NEAR CHILLY02-20-2024DISCHARGE (KAF)11591127
1MACI1BIG LOST-MACKAY RESERVOIR NEAR MACKAY02-20-2024INFLOW (KAF)10066151
2HALI1BIG WOOD-AT HAILEY02-20-2024DISCHARGE (KAF)167153109
3MAGI1BIG WOOD-MAGIC DAM02-20-2024INFLOW (KAF)188154123
4BITM8BITTERROOT-NEAR MISSOULA02-20-2024DISCHARGE (KAF)72190580
5BONM8BLACKFOOT-NEAR BONNER02-20-2024DISCHARGE (KAF)39461664
6BIGI1BOISE-AT GLENWOOD BRIDGE02-20-2024DISCHARGE (KAF)466208224
7LUCI1BOISE-LUCKY PEAK DAM02-20-2024INFLOW (KAF)1093898122
8PARI1BOISE-NEAR PARMA02-20-2024DISCHARGE (KAF)495255194
9HOTI1BRUNEAU-NEAR HOT SPRINGS02-20-2024DISCHARGE (KAF)234145161
10BULO3BULLY CREEK-BULLY CREEK DAM02-20-2024INFLOW (KAF)344767
11BUDW1BUMPING-BUMPING LAKE DAM02-20-2024INFLOW (KAF)10294109
12CHDW1CHELAN-LAKE CHELAN DAM02-20-2024INFLOW (KAF)56173377
13ABOM8CLARK FORK-ABOVE MISSOULA02-20-2024DISCHARGE (KAF)757107870
14DLGM8CLARK FORK-AT DEER LODGE02-20-2024DISCHARGE (KAF)687590
15SRGM8CLARK FORK-AT ST REGIS02-20-2024DISCHARGE (KAF)1968269073
16BELM8CLARK FORK-BELOW MISSOULA02-20-2024DISCHARGE (KAF)1478202473
17CABI1CLARK FORK-CABINET GORGE DAM02-20-2024INFLOW (KAF)5212752069
18NOXM8CLARK FORK-NOXON RAPIDS DAM02-20-2024INFLOW (KAF)4708671370
19DRMM8CLARK FORK-NR DRUMMOND02-20-2024DISCHARGE (KAF)18721488
20CLUW1CLE ELUM-CLE ELUM LAKE02-20-2024INFLOW (KAF)321312103
21ORFI1CLEARWATER-AT OROFINO02-20-2024DISCHARGE (KAF)3555397489
22SPDI1CLEARWATER-AT SPALDING02-20-2024DISCHARGE (KAF)4716583481
23COEI1COEUR D ALENE-COEUR D ALENE LAKE02-20-2024INFLOW (KAF)2297262987
24CIBW1COLUMBIA-AT INTL BOUNDARY02-20-2024DISCHARGE (KAF)168382406370
25BONO3COLUMBIA-BONNEVILLE DAM02-20-2024INFLOW (KAF)428075562477
26CHJW1COLUMBIA-CHIEF JOSEPH DAM02-20-2024INFLOW (KAF)199852768672
27GCDW1COLUMBIA-GRAND COULEE DAM02-20-2024INFLOW (KAF)210012770376
28JDAO3COLUMBIA-JOHN DAY DAM02-20-2024INFLOW (KAF)410285307677
29MCDW1COLUMBIA-MCNARY DAM02-20-2024INFLOW (KAF)384335105475
30PRWW1COLUMBIA-PRIEST RAPIDS DAM02-20-2024INFLOW (KAF)227893186372
31RRHW1COLUMBIA-ROCKY REACH DAM02-20-2024INFLOW (KAF)218333048072
32TDAO3COLUMBIA-THE DALLES DAM02-20-2024INFLOW (KAF)415145350078
33WANW1COLUMBIA-WANAPUM DAM02-20-2024INFLOW (KAF)227833179872
34WELW1COLUMBIA-WELLS DAM02-20-2024INFLOW (KAF)213562975872
35DEDI1DEADWOOD-NEAR LOWMAN02-20-2024INFLOW (KAF)8910188
36MODO3DESCHUTES-AT MOODY NR BIGGS02-20-2024DISCHARGE (KAF)15381421108
37ARDW1ENTIAT-NEAR ARDENVOIR02-20-2024DISCHARGE (KAF)13314294
38CHEI1FALL RIVER-NEAR CHESTER02-20-2024DISCHARGE (KAF)323295109
39CFMM8FLATHEAD-AT COLUMBIA FALLS02-20-2024DISCHARGE (KAF)2601328579
40KERM8FLATHEAD-SELI’Š KSANKA QLISPE’ DAM02-20-2024INFLOW (KAF)3166409177
41TRYO3GRANDE RONDE-TROY02-20-2024DISCHARGE (KAF)13791286107
42REXI1HENRYS FORK-AT REXBURG02-20-2024DISCHARGE (KAF)745682109
43ANTI1HENRYS FORK-AT ST. ANTHONY02-20-2024DISCHARGE (KAF)610586104
44IPDI1HENRYS FORK-ISLAND PARK DAM02-20-2024INFLOW (KAF)15616396
45HODO3HOOD-NEAR TUCKER BRIDGE02-20-2024DISCHARGE (KAF)320255126
46SERO3JOHN DAY-AT SERVICE CK02-20-2024DISCHARGE (KAF)1117860130
47KADW1KACHESS-KACHESS DAM02-20-2024INFLOW (KAF)969998
48LAUW1KETTLE-AT LAURIER02-20-2024DISCHARGE (KAF)15391525101
49PITW1KLICKITAT-NEAR PITT02-20-2024DISCHARGE (KAF)602504119
50BFEI1KOOTENAI-AT BONNERS FERRY02-20-2024STAGE (FT)MMM
51LEOI1KOOTENAI-AT LEONIA02-20-2024DISCHARGE (KAF)3168335894
52LYDM8KOOTENAI-LIBBY DAM02-20-2024INFLOW (KAF)2910366379
53LWRI1LITTLE WOOD-LITTLE WOOD DAM02-20-2024INFLOW (KAF)5951115
54BERO3MALHEUR-AGENCY VALLEY DAM02-20-2024INFLOW (KAF)7852150
55WRMO3MALHEUR-WARM SPRINGS DAM02-20-2024INFLOW (KAF)12779161
56MYKO3MCKAY CREEK-NEAR PILOT ROCK02-20-2024DISCHARGE (KAF)343888
57PATW1METHOW-NEAR PATEROS02-20-2024DISCHARGE (KAF)53766780
58WGCM8MF FLATHEAD-NEAR WEST GLACIER02-20-2024DISCHARGE (KAF)920112782
59CLFW1NACHES-NEAR CLIFFDEL02-20-2024DISCHARGE (KAF)334329102
60NACW1NACHES-NEAR NACHES02-20-2024DISCHARGE (KAF)486487100
61DWRI1NF CLEARWATER-DWORSHAK DAM02-20-2024INFLOW (KAF)2094240987
62FCFM8NF FLATHEAD-NEAR COLUMBIA FALLS02-20-2024DISCHARGE (KAF)887117675
63MONO3NF JOHN DAY-AT MONUMENT02-20-2024DISCHARGE (KAF)735604122
64CSDI1NF PAYETTE-CASCADE DAM02-20-2024INFLOW (KAF)36643784
65TONW1OKANOGAN-NEAR TONASKET02-20-2024DISCHARGE (KAF)844121669
66OWYO3OWYHEE-OWYHEE DAM02-20-2024INFLOW (KAF)559268209
67EMMI1PAYETTE-NEAR EMMETT02-20-2024DISCHARGE (KAF)900107784
68ALFW1PEND OREILLE-ALBENI FALLS DAM02-20-2024INFLOW (KAF)6773880577
69HOPI1PEND OREILLE-LAKE PEND OREILLE NR HOPE02-20-2024LAKE ELEVATION (FT)MMM
70PIHI1PORTNEUF-AT POCATELLO02-20-2024DISCHARGE (KAF)13373181
71PRTI1PRIEST-NEAR PRIEST RIVER02-20-2024DISCHARGE (KAF)816717114
72RCCM8ROCK CREEK-NEAR CLINTON02-20-2024DISCHARGE (KAF)14719376
73WHBI1SALMON-AT WHITEBIRD02-20-2024DISCHARGE (KAF)3638445482
74ARAI1SF BOISE-ANDERSON RANCH DAM02-20-2024INFLOW (KAF)439373118
75HHWM8SF FLATHEAD-HUNGRY HORSE DAM02-20-2024INFLOW (KAF)1312151786
76PLDI1SF SNAKE-PALISADES DAM02-20-2024INFLOW (KAF)1960198199
77SIFI1SNAKE-AB EAGLE ROCK NR IDAHO FALLS02-20-2024DISCHARGE (KAF)20651581131
78AFRI1SNAKE-AMERICAN FALLS RESERVOIR02-20-2024INFLOW (KAF)22871714133
79SNAI1SNAKE-AT BLACKFOOT02-20-2024DISCHARGE (KAF)16431075153
80MILI1SNAKE-AT MILNER02-20-2024DISCHARGE (KAF)M55M
81WEII1SNAKE-AT WEISER02-20-2024DISCHARGE (KAF)42964001107
82SWAI1SNAKE-BELOW SWAN FALLS02-20-2024DISCHARGE (KAF)19221893102
83BRNI1SNAKE-BROWNLEE DAM02-20-2024INFLOW (KAF)48724479109
84IHDW1SNAKE-ICE HARBOR DAM02-20-2024INFLOW (KAF)146891801482
85JLKW4SNAKE-JACKSON LAKE AT DAM02-20-2024INFLOW (KAF)563563100
86LGSW1SNAKE-LITTLE GOOSE DAM02-20-2024INFLOW (KAF)145661786282
87LGDW1SNAKE-LOWER GRANITE DAM02-20-2024INFLOW (KAF)145661782882
88LMNW1SNAKE-LOWER MONUMENTAL DAM02-20-2024INFLOW (KAF)146881800982
89ALPW4SNAKE-NEAR ALPINE02-20-2024DISCHARGE (KAF)1170132588
90ANAW1SNAKE-NEAR ANATONE02-20-2024DISCHARGE (KAF)98541148786
91BFTI1SNAKE-NEAR BLACKFOOT02-20-2024DISCHARGE (KAF)16101069151
92HEII1SNAKE-NEAR HEISE02-20-2024DISCHARGE (KAF)20261791113
93JKSW4SNAKE-NEAR JACKSON02-20-2024DISCHARGE (KAF)917102789
94SHYI1SNAKE-NEAR SHELLEY02-20-2024DISCHARGE (KAF)19401487130
95LLKW1SPOKANE-AT LONGLAKE02-20-2024INFLOW (KAF)2496297984
96SPOW1SPOKANE-AT SPOKANE02-20-2024DISCHARGE (KAF)2196265183
97SJMI1ST JOE-AT ST MARIES02-20-2024STAGE (FT)MMM
98SATI1ST MARIES-NEAR SANTA02-20-2024DISCHARGE (KAF)145137106
99STRM8ST. REGIS-NEAR ST. REGIS02-20-2024DISCHARGE (KAF)20523787
100TNAW1TEANAWAY-BELOW FORKS02-20-2024DISCHARGE (KAF)146134109
101TEAI1TETON-NEAR ST. ANTHONY02-20-2024DISCHARGE (KAF)312269116
102RILW1TIETON-RIMROCK LAKE NEAR RIMROCK02-20-2024INFLOW (KAF)15015597
103PDTO3UMATILLA-AT PENDLETON02-20-2024DISCHARGE (KAF)205189108
104GIBO3UMATILLA-NEAR GIBBON02-20-2024DISCHARGE (KAF)9188104
105UMAO3UMATILLA-NEAR UMATILLA02-20-2024DISCHARGE (KAF)170168101
106TCHW1WALLA WALLA-NEAR TOUCHET02-20-2024DISCHARGE (KAF)17320485
107WSRI1WEISER-NEAR WEISER02-20-2024DISCHARGE (KAF)439417105
108PESW1WENATCHEE-AT PESHASTIN02-20-2024DISCHARGE (KAF)966107390
109UNDW1WHITE SALMON-NEAR UNDERWOOD02-20-2024DISCHARGE (KAF)363339107
110RIDI1WILLOW CREEK-RIRIE DAM02-20-2024INFLOW (KAF)7939201
111EASW1YAKIMA-AT EASTON02-20-2024DISCHARGE (KAF)939994
112KIOW1YAKIMA-AT KIONA02-20-2024DISCHARGE (KAF)905105586
113UMTW1YAKIMA-AT UMTANUM02-20-2024DISCHARGE (KAF)60163495
114KEDW1YAKIMA-KEECHELUS LAKE02-20-2024INFLOW (KAF)110106104
115PARW1YAKIMA-NEAR PARKER02-20-2024DISCHARGE (KAF)58372081